Terminal Aerodrome Forecast
Issued by NWS

Home | Current Version | Previous Version | Text Only | Print | Product List | Glossary On
Versions: 1 2 3 4 5 6 7 8 9 10 11 12 13 14 15 16 17 18 19 20 21 22 23 24
000
FTUS45 KLKN 050520
TAFEKO
TAF
KEKO 050520Z 0506/0606 VRB06KT P6SM SCT080 BKN120
     FM052100 24010KT P6SM VCTS SCT080CB BKN120
      TEMPO 0522/0524 VRB20G35KT BKN060CB OVC100
     FM060200 28010KT P6SM SCT100 OVC200=

USA.gov is the U.S. government's official web portal to all federal, state and local government web resources and services.